Location: Bush Observatory
(40.2653°N, 94.3194°W)
Time: 14:31:56
(UTC-06:00)

JAS-2 - Visible Passes

Search period start: 02 March 2015 00:00
Search period end: 12 March 2015 01:00
Orbit: 800 x 1321 km, 98.5° (Epoch: 01 March)

Date Brightness Start Highest point End Pass type
(mag) Time Alt. Az. Time Alt. Az. Time Alt. Az.
02 Mar 12.3 03:15:25 10° NE 03:19:55 17° E 03:25:00 10° SE visible
02 Mar 10.0 04:58:21 10° NNE 05:05:49 90° WNW 05:13:43 10° SSW visible
03 Mar 11.2 04:03:45 10° NNE 04:10:43 41° E 04:18:03 10° SSE visible
03 Mar 10.4 05:48:47 10° N 05:55:45 44° WNW 06:02:59 10° SW visible
04 Mar 12.4 03:10:46 10° NE 03:15:01 16° E 03:19:50 10° SE visible
04 Mar 10.1 04:53:27 10° NNE 05:01:01 86° ESE 05:08:56 10° SSW visible
05 Mar 11.3 03:58:56 10° NNE 04:05:53 38° E 04:13:08 10° SSE visible
05 Mar 10.3 05:43:50 10° N 05:50:58 47° WNW 05:58:19 10° SW visible
06 Mar 12.5 03:06:10 10° NE 03:10:07 15° E 03:14:38 10° ESE visible
06 Mar 10.2 04:48:35 10° NNE 04:56:14 82° ESE 05:04:08 10° SSW visible
07 Mar 11.4 03:54:09 10° NNE 04:01:02 36° E 04:08:12 10° SSE visible
07 Mar 10.3 05:38:54 10° N 05:46:11 49° WNW 05:53:38 10° SW visible
08 Mar 12.5 04:01:38 10° NE 04:05:12 14° E 04:09:23 10° ESE visible
08 Mar 10.2 05:43:43 10° NNE 05:51:26 78° ESE 05:59:19 10° S visible
09 Mar 11.5 04:49:22 10° NNE 04:56:11 34° E 05:03:13 10° SSE visible
09 Mar 10.3 06:34:00 10° N 06:41:25 52° WNW 06:48:55 10° SW visible
10 Mar 12.6 03:57:10 10° ENE 04:00:17 13° E 04:04:03 10° ESE visible
10 Mar 10.3 05:38:53 10° NNE 05:46:38 74° ESE 05:54:29 10° S visible
11 Mar 11.6 04:44:36 10° NNE 04:51:20 32° E 04:58:15 10° SSE visible
11 Mar 10.2 06:29:07 10° N 06:36:38 55° WNW 06:44:12 10° SW visible
